Regional Weather Roundup
Issued by NWS Green Bay, WI

Home | Current Version | Previous Version | Text Only | Print | Product List | Glossary On
Versions: 1 2 3 4 5 6 7 8 9 10 11 12 13 14 15 16 17 18 19 20 21 22 23 24 25 26 27 28 29 30 31 32 33 34 35 36 37 38 39 40 41 42 43 44 45 46 47 48 49 50
000
ASUS43 KGRB 080011
RWRGRB

NORTH-CENTRAL AND NORTHEAST WISCONSIN REGIONAL WEATHER ROUNDUP
NATIONAL WEATHER SERVICE GREEN BAY WI
700 PM CDT TUE JUL 07 2015

WIZ005-009-010>012-018-019-080100-
NORTH CENTRAL WISCONSIN

CITY           SKY/WX    TMP DP  RH WIND       PRES   REMARKS
IRONWOOD       SUNNY     64  41  42 CALM      30.08S
MANITOWISH WTR SUNNY     64  43  46 N5        30.12S
ARBOR VITAE    SUNNY     64  45  48 NW7       30.11S
EAGLE RIVER    SUNNY     64  43  45 N5        30.11R
LAND O LAKES   SUNNY     64  42  44 N6        30.12S
RHINELANDER    SUNNY     65  44  46 N5        30.11S
PHILLIPS       SUNNY     64  44  47 N6        30.11S
ANTIGO         MOSUNNY   64  48  55 N7        30.10S
TOMAHAWK       SUNNY     65  45  48 N3        30.11S
MERRILL        SUNNY     66  47  49 NE8       30.10S
$$

WIZ013-073-080100-
NORTHEAST WISCONSIN

CITY           SKY/WX    TMP DP  RH WIND       PRES   REMARKS
IRON MOUNTAIN  SUNNY     67  45  45 N10       30.07S
MARINETTE      MOSUNNY   68  46  45 N9        30.06R
OCONTO         MOSUNNY   68  49  50 N6        30.07R
$$

WIZ017-030-035>037-045-080100-
CENTRAL WISCONSIN

CITY           SKY/WX    TMP DP  RH WIND       PRES   REMARKS
MEDFORD        SUNNY     66  47  49 N8        30.11R
WAUSAU         PTSUNNY   69  45  41 N8        30.08S
MOSINEE        MOSUNNY   66  46  48 N6        30.10S
MARSHFIELD     PTSUNNY   69  46  43 N9        30.09S
WISC RAPIDS    MOSUNNY   69  45  41 N10       30.09S
STEVENS POINT  MOSUNNY   66  46  48 N6        30.09S
WAUPACA        MOSUNNY   71  47  42 N6        30.08S
SHAWANO        MOSUNNY   69  47  45 N8        30.08S
CLINTONVILLE   SUNNY     68  46  45 NE7       30.08R
$$

WIZ038-039-048-051-080100-
FOX VALLEY

CITY           SKY/WX    TMP DP  RH WIND       PRES   REMARKS
NWS GREEN BAY  MOSUNNY   69  49  48 N8        30.08R
APPLETON       MOSUNNY   66  46  48 N12       30.08S
OSHKOSH        MOSUNNY   68  47  46 N12       30.07R
FOND DU LAC    SUNNY     68  49  50 NE9       30.07S
$$

WIZ022-050-052-080100-
EAST CENTRAL WISCONSIN

CITY           SKY/WX    TMP DP  RH WIND       PRES   REMARKS
STURGEON BAY   SUNNY     64  48  55 N7        30.09S
MANITOWOC      MOSUNNY   62  50  64 MISG      30.09R
SHEBOYGAN      SUNNY     61  49  64 NE7       30.09R
$$

LMZ563-521-522-541>543-080100-
LAKESHORE

STATION/POSITION TIME  TEMP    WIND        PRES    VSBY  WAVE
                       AIR SEA DIR/SP/G                  HT/PER
                 (UTC) (F)     (DEG/KT/KT) (MB)    (MI)  (FT/S)
SHEBOYGAN LKSHOR 0000   58        CALM     1019.1R
KEWAUNEE LKSHORE 2300   58     150/  2/  5 1017.7R
ALGOMA MARINA    2311          100/  6/  7   N/A
NORTHPORT PIER   2300   62     360/ 12/ 15 1017.6S
N MID LAKE BUOY  2350   56 52  330/  6/  6 1018.0R         2/ 4
S GREEN BAY BUOY 2300   66 68   60/  8/ 12 1019.1F
CHAMBERS ISLAND  2300   65      30/ 13/ 15 1017.6F
MENOMINEE LKSHOR 2300   66      60/  8/  9 1018.4S
$$


USA.gov is the U.S. government's official web portal to all federal, state and local government web resources and services.